Regional Weather Roundup
Issued by NWS

Home | Current Version | Previous Version | Text Only | Print | Product List | Glossary On
Versions: 1 2 3 4 5 6 7 8 9 10 11 12 13 14 15 16 17 18 19 20 21 22 23 24 25 26 27 28 29 30 31 32 33 34 35 36 37 38 39 40 41 42 43 44 45 46 47 48 49 50
000
ASPQ40 PGUM 290312
RWRPQ
WEATHER ROUNDUP FOR THE MARIANAS AND MICRONESIA
NATIONAL WEATHER SERVICE TIYAN GU
100 PM CHST TUE JUL 29 2014

GUZ001>004-290400-
MARIANA ISLANDS-

CITY           SKY/WX    TMP DP  RH WIND       PRES   REMARKS
GUAM AIRPORT   PTSUNNY   82  75  78 W14       29.84S
ANDERSEN AFB   PTSUNNY   81  77  89 W17       29.83S
ROTA AIRPORT   LGT RAIN  81  77  89 NW12      29.82F
TINIAN AP      PTSUNNY   82  81  94 NW9       29.77F HX  95
SAIPAN AP      PTSUNNY   84  79  84 N12       29.80F HX  96

$$

PMZ161-290400-
REPUBLIC OF PALAU-

CITY           SKY/WX    TMP DP  RH WIND       PRES   REMARKS
KOROR AP       PTSUNNY   86  79  79 SW10G22   29.83S HX  99
KOROR WSO      CLOUDY    86  75  70 S12G24    29.82S HX  95

$$

PMZ171>174-290400-
FEDERATED STATES OF MICRONESIA-

CITY           SKY/WX    TMP DP  RH WIND       PRES   REMARKS
YAP AIRPORT    PTSUNNY   86  77  74 S14       29.80F HX  97
CHUUK AP       CLOUDY    86  79  79 W9        29.82F HX  99
POHNPEI AP     MOSUNNY   90  77  66 N6        29.83F HX 102
POHNPEI WSO    NOT AVBL
KOSRAE AP      NOT AVBL

$$

PMZ181-290400-
REPUBLIC OF THE MARSHALL ISLANDS-

CITY           SKY/WX    TMP DP  RH WIND       PRES   REMARKS
KWAJALEIN AP   LGT RAIN  81  73  78 E5        29.83S
MAJURO AP      NOT AVBL
MAJURO WSO     PTSUNNY   82  77  83 SW16      29.83F HX  91

$$




USA.gov is the U.S. government's official web portal to all federal, state and local government web resources and services.